Wind_Speed
18 18 18 18 18 19 20 20 20 19 19 18 17 17 16 16 15 15 14 13 12 10 10 10 11 11 11 10 11 11 11 11 10 10 10 9 9 8 8 8 8 8 8 8 9 9 9 10 11 12 12 12 12 12 12 12 12 13 13 12 12 13 13 13 13 14 14 15 15 16 17 17 18 18 18 17 18 18 18 18 18 18 18 19 21
17 18 19 19 19 19 20 20 21 20 20 19 19 18 17 17 16 16 15 14 14 12 11 11 11 12 12 12 12 12 12 11 11 11 10 10 9 9 8 8 8 7 8 8 9 9 9 9 10 10 11 12 12 12 12 12 13 14 14 14 14 14 14 13 13 14 13 14 14 15 15 16 16 16 17 17 17 17 17 18 18 19 19 19 21
19 19 20 20 21 21 20 21 21 21 21 20 20 19 19 18 18 17 16 16 15 15 13 13 13 13 13 13 13 13 13 13 12 12 11 11 10 10 9 9 8 8 8 8 8 8 9 9 9 9 10 11 11 12 12 13 13 14 14 14 14 14 14 14 14 14 13 14 14 14 14 15 16 17 18 18 18 18 18 18 18 19 20 20 20
23 21 21 22 22 22 22 21 22 22 22 21 21 21 21 20 20 19 18 17 17 16 16 15 14 14 14 15 15 14 14 14 13 13 13 12 11 11 10 10 9 9 9 9 8 8 9 9 9 10 10 10 11 11 12 12 12 13 13 13 13 14 14 14 14 14 14 14 14 15 15 16 17 18 18 18 19 19 19 19 19 20 20 20 20
26 24 23 23 24 24 24 23 23 23 22 22 22 22 22 22 22 21 20 19 19 18 18 17 16 15 15 16 16 16 15 15 14 14 14 13 13 12 12 11 10 10 10 10 9 9 10 10 10 10 10 10 11 11 11 11 11 12 13 13 13 13 13 13 13 14 14 14 14 15 15 16 17 17 18 19 19 19 19 20 21 21 21 21 21
29 28 27 26 26 26 26 25 24 24 24 24 24 24 24 24 24 23 23 22 21 20 19 19 18 17 17 17 17 17 16 16 15 15 15 15 14 13 13 13 12 12 11 11 11 11 11 11 11 10 10 11 11 11 11 11 12 12 13 13 13 13 13 13 14 15 15 15 15 15 15 16 16 17 18 19 20 21 21 21 21 22 23 23 22
32 31 30 28 27 27 27 27 26 26 26 25 25 25 25 26 26 26 25 25 23 22 21 21 20 19 18 18 18 18 17 17 17 16 16 16 15 15 15 14 14 14 13 13 13 12 13 13 12 12 12 12 12 12 12 12 12 13 13 14 14 14 14 15 15 16 16 16 16 16 16 16 17 17 19 20 21 21 22 22 22 22 23 24 23
34 34 33 31 29 28 28 28 28 29 29 28 27 26 26 26 27 28 28 27 26 25 24 23 22 21 20 20 19 19 18 18 18 18 17 17 17 16 16 16 16 16 16 15 15 14 14 14 14 14 14 14 14 14 14 14 14 14 14 15 16 16 16 16 17 17 17 17 17 17 18 18 18 18 19 20 21 22 23 24 25 25 25 25 24
35 35 34 34 32 31 31 30 29 30 31 30 30 29 28 28 28 29 29 29 29 28 27 26 24 23 22 21 20 20 19 19 19 19 19 18 18 17 18 18 17 17 17 17 17 16 16 15 16 16 16 16 16 16 17 17 16 16 16 16 17 17 17 17 18 18 19 19 19 20 20 20 19 19 19 20 21 23 24 24 25 26 26 25 23
33 34 33 33 33 33 33 32 31 31 31 32 32 31 31 30 29 29 29 30 30 30 29 28 26 25 24 23 22 21 21 21 20 19 19 19 19 18 18 18 18 18 18 18 18 18 17 17 17 17 17 17 18 18 18 19 18 18 18 18 18 19 19 19 19 19 20 21 21 21 22 21 19 19 20 21 22 24 25 25 26 27 27 25 22
27 29 29 31 33 35 36 35 34 33 32 32 32 32 32 32 31 31 30 30 30 30 30 29 28 28 27 25 24 24 23 24 22 21 21 21 21 20 20 19 19 19 19 19 19 20 19 19 19 19 19 19 20 20 20 20 20 20 20 20 20 20 20 20 20 21 22 22 23 23 23 22 22 21 21 21 22 23 25 26 27 28 27 26 24
24 25 26 29 31 33 34 35 36 36 35 35 34 33 32 32 33 32 31 30 30 29 29 29 29 29 29 28 27 26 26 26 24 22 23 23 23 22 22 21 21 21 21 21 21 21 21 21 21 20 20 21 21 21 21 21 21 21 21 21 21 21 21 22 22 22 23 23 24 24 24 24 24 23 22 22 23 25 26 26 26 27 27 27 27
23 24 25 26 26 27 28 30 34 38 39 39 38 36 34 33 33 33 32 32 31 29 29 29 29 29 30 30 29 28 28 29 26 24 25 25 25 25 24 23 23 23 23 23 22 23 23 23 23 22 22 22 22 22 23 23 23 23 22 22 22 23 23 24 25 25 25 25 25 24 24 24 25 24 23 24 25 25 25 25 26 26 26 27 28
21 21 21 22 22 23 24 25 28 33 37 40 40 39 38 36 34 34 34 33 32 30 29 29 28 28 28 28 29 28 29 30 29 27 27 28 27 27 26 25 25 25 25 25 24 24 24 24 24 24 25 25 25 24 25 25 25 24 24 24 25 25 26 26 27 27 27 26 26 25 23 23 23 22 22 23 24 25 25 26 27 27 27 27 27
19 19 20 20 20 20 21 21 23 26 30 35 37 40 41 41 38 36 34 33 32 31 30 29 28 27 26 26 26 26 28 30 30 29 30 30 29 29 29 28 27 27 26 26 26 26 26 26 26 26 27 28 28 28 27 28 27 27 26 26 27 28 28 27 27 27 26 26 25 24 23 23 23 23 23 24 26 27 28 29 28 28 27 27 25
19 19 19 19 19 19 18 19 20 22 24 27 30 33 37 41 41 39 35 33 31 30 29 28 28 26 25 26 25 25 28 29 27 27 28 29 29 30 30 30 29 29 28 28 28 28 27 27 27 27 27 28 29 29 29 29 29 29 28 28 29 29 28 27 26 26 26 26 27 26 26 25 26 27 27 27 28 30 32 31 30 30 30 28 26
18 19 19 19 18 18 18 18 19 20 21 22 23 24 27 32 37 38 36 33 31 29 28 27 26 26 26 26 25 26 28 27 24 25 26 26 27 28 29 30 30 29 28 27 27 27 27 26 26 26 26 27 28 28 28 29 29 29 28 28 28 28 27 25 26 26 27 28 28 28 29 29 29 30 30 30 31 32 33 33 32 33 33 32 30
17 18 18 18 18 18 18 18 18 17 18 17 17 17 18 22 28 34 37 35 33 33 32 29 26 25 25 25 25 26 26 23 23 25 26 26 26 26 26 28 28 28 27 26 26 26 26 26 25 25 26 26 26 26 26 27 28 28 28 28 28 28 27 26 27 28 29 29 28 29 30 30 31 31 31 31 32 33 35 35 34 35 35 35 34
16 17 17 18 18 18 18 18 17 17 17 16 14 14 14 15 19 26 32 34 34 36 38 36 32 28 27 26 26 26 25 23 23 25 26 26 27 26 26 27 27 27 26 26 26 26 26 27 26 27 27 27 26 25 26 26 27 27 28 28 29 28 28 28 29 29 31 32 32 31 32 32 32 32 32 32 33 34 35 36 37 38 38 38 37
15 16 17 17 18 18 18 18 17 17 17 16 14 14 13 12 14 19 23 28 32 35 38 39 38 37 35 35 35 34 31 28 26 25 24 24 26 27 27 28 27 27 28 28 28 28 29 30 30 29 28 28 28 27 27 27 27 27 28 29 29 30 30 30 31 32 33 34 35 35 35 35 34 34 34 35 35 35 36 37 37 38 38 38 37
14 15 16 17 17 18 17 16 16 17 16 15 13 13 12 11 12 15 18 21 24 26 29 32 37 40 41 42 44 44 40 32 24 20 20 21 23 25 27 28 28 29 30 31 32 32 33 34 34 31 30 30 30 30 30 29 29 29 30 31 32 32 33 33 34 35 36 36 37 37 37 37 37 37 37 38 37 36 36 37 37 36 35 35 35
14 14 14 15 16 17 16 15 16 16 17 16 15 14 13 11 11 13 15 14 14 15 19 23 28 32 34 35 38 41 41 35 27 22 20 18 19 21 24 25 27 29 31 33 34 35 36 36 34 32 31 31 31 31 31 31 31 32 33 33 34 34 34 35 35 36 37 37 38 38 38 38 38 37 37 37 36 34 34 35 35 34 33 32 32
14 14 14 14 14 15 15 15 15 16 16 17 18 17 16 15 14 14 15 15 14 14 16 17 19 22 23 25 26 29 33 34 32 30 27 22 19 20 21 21 22 24 26 28 29 31 32 33 32 30 30 30 30 30 31 32 32 33 33 33 34 33 34 34 35 35 36 37 38 38 37 37 37 35 34 34 33 31 31 31 30 30 30 30 30
14 14 14 13 13 13 13 14 13 13 13 13 14 15 16 16 17 17 19 19 18 18 18 18 19 19 20 21 21 21 23 25 25 25 25 23 20 20 20 21 22 23 23 24 24 26 27 30 31 30 30 31 30 30 31 32 33 34 34 35 34 34 34 35 35 35 35 35 36 35 35 35 35 33 31 32 32 31 29 28 27 27 28 28 28
13 14 14 14 13 13 12 13 12 11 11 11 11 11 11 12 13 14 16 18 20 20 20 19 19 19 19 19 19 19 20 20 19 20 21 21 21 20 20 21 22 23 23 24 25 26 26 27 28 29 30 31 32 32 32 33 34 34 35 35 35 35 35 36 36 36 36 35 35 34 33 34 34 33 32 32 33 32 30 28 27 26 27 28 28
12 13 13 13 13 13 12 12 12 12 12 12 11 11 11 11 10 11 12 13 14 16 16 15 14 14 13 13 14 15 17 18 18 18 19 20 21 22 23 23 23 24 25 26 27 28 27 27 28 29 31 32 33 33 33 34 35 35 35 35 36 36 36 36 37 37 37 37 36 35 34 34 35 35 35 34 34 33 31 30 28 28 28 27 27
13 13 13 13 13 13 13 13 13 13 13 13 13 12 12 12 12 11 11 11 12 12 12 12 12 12 11 11 12 13 14 15 15 15 16 16 17 18 20 21 22 23 24 25 26 26 26 26 27 28 30 31 31 32 33 34 34 34 34 34 34 35 35 35 35 35 36 36 36 35 35 35 36 36 36 35 34 33 32 31 30 29 29 28 28
13 14 14 14 14 15 15 15 14 14 14 14 14 14 14 14 14 14 14 14 14 14 14 14 14 14 15 15 15 15 15 16 16 16 16 17 17 18 18 18 19 19 20 20 20 20 20 20 21 21 23 24 25 27 27 28 28 28 28 28 29 30 31 31 32 32 32 32 32 32 32 32 33 34 35 35 34 33 32 32 32 31 31 31 30
13 14 15 16 17 18 18 18 18 18 18 18 17 17 17 17 17 17 18 18 18 18 18 18 18 18 19 19 20 20 20 20 20 20 20 20 21 21 21 21 22 22 22 21 21 20 20 20 20 20 20 21 22 22 22 23 22 23 23 24 25 26 27 28 29 29 29 29 28 27 27 27 28 30 32 33 33 32 31 31 31 32 32 32 32
13 14 15 16 17 19 20 21 22 22 22 22 22 22 21 21 21 21 21 21 22 22 22 22 22 23 23 23 24 24 24 24 24 25 25 25 26 26 26 26 26 26 26 26 25 24 25 25 26 26 25 25 25 25 25 25 24 24 24 24 24 24 25 26 27 28 28 27 26 25 25 26 27 27 29 30 31 31 31 30 30 30 31 31 31
13 14 15 15 16 18 19 20 22 23 24 25 25 25 25 25 25 25 25 25 25 26 26 26 26 26 27 27 27 27 27 28 28 28 29 29 29 29 30 30 30 30 30 29 29 28 29 29 30 31 30 30 30 29 29 29 29 28 27 27 26 26 26 26 27 27 27 27 27 26 27 27 27 27 27 28 29 29 29 29 30 30 30 30 30
13 13 14 15 16 16 17 19 20 22 23 24 25 26 26 26 26 27 27 28 28 28 28 29 29 29 29 30 30 30 30 30 30 31 31 31 31 31 31 31 31 31 32 32 31 32 32 32 33 34 33 33 33 33 33 33 33 32 32 31 31 30 29 28 28 28 28 28 28 28 28 28 28 28 27 28 28 28 28 29 29 30 30 30 30
12 13 14 15 15 16 17 18 19 20 21 22 23 24 25 25 26 26 27 27 28 28 29 29 29 29 30 30 30 30 30 30 30 30 30 31 31 30 30 30 30 31 31 31 32 32 33 34 34 35 35 35 36 36 36 35 35 36 36 36 36 35 34 32 31 31 30 30 30 30 30 30 29 29 29 29 29 29 29 29 29 30 31 31 32
12 12 13 14 15 16 16 17 18 18 19 20 21 22 23 24 24 25 26 26 26 27 27 28 28 28 28 28 28 28 28 29 29 29 29 29 29 29 29 29 29 29 30 30 30 31 32 33 34 34 35 35 36 36 37 37 37 38 38 39 39 38 37 36 35 34 34 34 34 34 33 33 33 32 32 32 32 31 31 31 31 31 31 32 32
13 13 13 14 14 15 15 16 17 17 18 19 20 21 21 22 22 23 23 24 25 26 26 26 26 26 26 27 27 27 27 27 27 27 27 27 27 28 28 28 28 29 29 30 29 29 30 31 32 33 34 34 34 35 35 36 37 37 38 39 39 40 39 38 38 37 36 36 36 36 36 36 36 36 36 36 35 35 35 35 35 35 34 34 34
15 14 14 14 14 14 15 15 16 16 17 17 18 19 20 20 21 21 21 22 22 23 24 25 25 25 25 25 25 25 25 25 26 26 26 26 27 27 27 27 28 29 30 30 30 29 30 30 30 31 31 32 32 32 33 33 34 34 35 36 36 37 38 38 37 37 36 36 37 36 37 37 37 38 38 38 39 39 39 39 39 39 39 38 38
18 17 16 16 16 16 15 16 16 16 16 17 17 18 18 19 19 20 20 20 21 21 22 22 23 23 23 24 23 23 23 23 24 24 25 25 26 26 26 27 27 28 29 30 30 30 30 29 29 29 29 29 29 29 29 30 30 30 30 30 31 32 33 33 33 33 33 33 33 33 33 34 34 34 35 36 36 38 39 40 40 41 41 42 42
20 20 19 19 18 18 17 17 17 17 17 17 17 17 18 18 19 19 19 20 20 21 21 21 22 23 24 24 22 21 21 22 23 23 23 24 25 25 26 26 26 27 28 29 29 30 30 29 29 29 28 29 29 29 29 29 28 28 28 28 28 28 28 28 29 29 29 29 30 30 30 30 31 31 31 32 32 33 34 35 36 37 38 39 39
23 22 22 22 21 20 20 19 19 19 19 19 19 18 18 19 19 19 20 20 21 21 22 22 23 24 25 25 23 22 21 22 22 23 23 23 24 24 25 26 26 27 28 28 29 30 30 30 29 29 29 29 29 29 29 28 28 28 28 28 28 28 28 28 29 29 29 29 30 30 31 31 32 32 33 33 33 33 33 34 34 34 35 35 36
25 24 23 23 23 23 22 22 21 21 21 21 21 20 20 20 20 21 21 21 21 22 22 23 24 25 26 25 24 23 22 23 24 24 24 24 24 25 25 26 27 28 28 29 30 30 30 30 29 29 29 29 29 29 29 28 28 29 29 30 30 30 31 31 32 32 32 32 33 33 34 34 35 35 36 36 37 37 37 37 37 37 37 38 37
25 25 24 23 24 24 24 23 23 23 22 22 23 22 22 23 23 23 23 23 23 23 24 24 25 26 26 26 25 24 25 26 27 27 26 26 27 28 28 28 29 29 30 30 31 32 32 31 31 31 31 31 31 31 31 31 31 32 32 33 33 33 34 35 35 36 36 36 36 37 37 37 38 38 38 39 39 40 40 40 40 40 40 41 41
24 24 24 24 24 24 25 25 25 24 24 24 24 24 24 25 25 25 26 25 25 25 26 26 27 28 28 27 27 27 28 29 30 30 30 30 31 32 32 32 32 32 32 33 34 34 35 34 34 35 35 35 35 35 35 35 35 36 36 37 37 37 37 38 38 39 39 39 39 39 39 40 41 41 41 41 41 42 42 42 42 43 43 43 43
23 23 24 24 24 24 25 26 26 26 26 26 25 25 26 26 26 27 27 27 27 27 27 28 29 30 29 29 29 30 31 32 32 32 32 33 34 35 35 36 35 35 35 36 36 37 37 37 37 38 38 38 38 38 38 39 39 39 40 40 41 41 41 41 41 41 41 40 40 40 41 42 43 43 43 43 43 43 44 44 44 44 45 45 45
24 24 24 24 25 25 26 27 27 28 28 27 27 27 27 27 27 27 28 28 28 28 28 29 30 30 30 30 30 31 31 31 32 33 33 33 34 34 35 35 36 36 37 37 38 38 39 39 39 40 40 40 41 41 41 41 42 42 42 42 43 43 43 43 43 43 43 42 41 41 43 43 43 43 43 44 44 45 45 46 46 46 46 47 47
25 25 25 25 26 26 27 27 28 28 28 28 28 28 28 28 28 28 28 28 29 29 29 29 30 31 31 31 31 31 31 31 32 33 33 34 34 34 34 35 35 36 36 37 37 38 39 39 40 40 41 41 41 42 42 43 43 43 43 44 44 45 45 45 46 45 45 44 43 43 45 45 45 45 45 45 46 46 46 47 47 48 48 48 48
26 25 26 26 27 27 27 27 28 28 28 28 28 28 28 28 28 28 29 29 29 29 29 30 30 30 31 31 31 31 31 32 32 32 33 34 34 34 35 35 36 36 37 37 37 38 38 39 40 40 41 41 42 42 42 42 43 43 43 44 45 45 46 46 46 46 46 45 44 45 46 46 46 47 47 47 47 48 48 49 49 49 49 50 50
26 26 26 26 26 26 26 26 27 27 27 27 28 28 28 28 28 28 29 29 29 29 30 30 30 30 30 30 31 31 32 32 32 32 33 34 35 35 35 35 35 36 37 37 38 39 39 40 40 41 41 42 42 43 43 43 43 43 43 44 45 46 46 46 46 46 47 46 46 46 47 48 48 48 47 47 48 48 49 49 50 50 50 50 50
27 26 26 25 25 26 26 26 26 26 26 26 27 27 27 27 27 28 28 28 29 29 29 30 30 30 30 30 30 31 31 31 32 32 33 34 34 35 35 34 34 34 36 37 38 39 40 40 41 42 42 42 43 43 44 44 45 45 45 45 46 46 45 45 46 47 47 47 47 47 48 48 48 48 48 47 48 48 49 49 49 49 49 49 49
28 27 26 26 26 26 26 25 25 25 25 25 25 26 26 27 27 27 27 27 28 28 28 29 29 29 29 29 29 29 29 29 29 30 30 31 32 33 33 33 34 34 35 36 37 38 39 40 41 42 42 43 43 44 44 45 46 46 46 47 47 47 47 47 48 48 48 48 47 47 47 47 47 47 47 47 48 48 49 49 48 48 48 48 48
28 28 28 27 26 25 25 24 24 24 24 24 25 25 25 25 26 26 26 26 26 26 26 26 26 26 25 25 25 25 25 26 26 27 27 28 29 29 30 31 32 34 35 36 37 38 39 40 41 42 43 43 44 44 44 45 46 47 47 46 46 47 48 49 49 48 48 48 48 47 46 46 45 45 45 46 47 47 47 47 47 47 47 47 47
29 29 28 26 25 24 23 23 24 24 24 24 24 24 24 24 24 24 24 24 24 23 23 23 22 22 22 22 22 22 22 23 24 24 25 26 27 27 28 29 31 32 34 35 36 38 39 40 41 42 43 43 44 44 44 45 46 46 46 46 47 48 48 48 48 48 48 49 48 47 46 45 44 44 44 44 44 45 45 45 45 46 46 46 45
Wind_Direction
200 201 202 203 205 207 209 211 213 214 215 216 216 218 220 220 221 221 221 223 224 225 225 227 229 228 229 230 229 228 226 224 222 220 224 229 231 232 230 230 231 231 232 233 234 237 239 240 241 242 243 245 246 247 246 246 248 249 251 255 260 264 267 269 272 274 276 278 281 286 289 292 296 300 302 306 310 312 314 315 317 320 322 325 327
206 205 206 206 207 210 211 213 215 216 217 218 218 221 224 224 225 225 225 226 228 229 229 230 232 232 232 234 236 236 232 229 227 223 224 228 230 232 234 234 237 238 240 241 242 242 243 245 246 247 249 251 251 252 252 250 250 253 256 259 264 268 271 274 277 280 283 285 286 289 291 294 297 301 304 308 310 312 314 315 317 320 321 325 327
212 210 210 210 209 211 214 215 217 218 218 219 220 222 225 228 228 228 228 228 229 231 231 231 233 234 235 235 237 239 238 234 231 228 227 227 228 232 237 238 239 241 244 247 247 246 245 246 247 247 249 251 253 253 254 254 254 256 261 265 268 271 274 276 278 281 283 287 289 290 292 295 299 302 305 308 310 311 312 314 316 318 319 323 325
212 213 213 214 213 213 216 217 219 220 220 221 221 221 224 228 230 230 230 231 230 230 232 232 232 234 236 236 235 236 239 239 236 233 232 230 230 232 236 238 239 240 243 245 246 247 249 249 249 248 248 250 253 255 256 257 257 259 263 267 269 272 276 279 281 284 287 291 293 295 296 298 301 304 307 308 309 310 311 312 314 315 316 321 324
214 215 215 216 216 215 217 219 220 221 221 222 222 222 223 227 231 231 231 232 232 231 232 233 232 233 236 238 236 234 235 238 238 237 237 237 238 238 239 239 238 240 241 242 243 245 248 250 251 250 250 251 254 257 259 261 262 263 266 268 271 275 278 282 285 289 293 295 296 296 297 299 302 305 306 307 308 308 309 310 312 312 315 319 323
219 219 219 219 219 219 218 220 222 223 222 223 223 223 224 225 229 231 232 233 234 234 234 234 233 233 235 238 239 237 236 236 237 238 240 242 243 245 245 244 242 242 243 243 244 245 248 251 252 250 250 251 253 257 260 263 265 267 269 271 274 277 280 282 285 288 291 293 293 294 295 298 301 303 304 304 305 306 307 308 309 310 312 315 317
223 224 224 225 225 225 224 224 225 226 225 224 225 225 225 226 227 230 231 232 234 235 236 237 236 234 235 238 240 240 239 237 237 238 239 242 244 246 247 248 248 247 247 247 247 247 249 252 254 254 252 251 253 256 259 262 264 267 270 274 277 279 281 282 284 286 288 289 292 293 294 296 298 300 300 302 303 304 305 305 304 303 305 307 311
227 227 228 229 230 231 230 229 228 230 230 228 227 227 227 228 229 230 231 232 233 234 235 237 238 237 236 238 240 242 242 241 240 239 239 240 241 244 246 248 250 251 251 251 250 250 251 252 254 256 257 256 256 258 260 262 264 267 270 274 277 279 281 283 285 287 289 290 292 294 295 297 298 298 298 300 301 302 302 302 301 303 305 308 312
230 231 231 231 232 233 234 234 232 233 234 233 232 230 229 230 231 232 233 234 234 234 235 237 238 239 239 239 240 242 243 243 242 242 242 242 241 243 245 246 249 251 253 253 253 253 253 254 254 257 259 262 262 262 263 264 265 268 270 272 275 277 279 281 284 287 289 292 294 296 297 299 300 300 299 299 300 300 300 301 302 305 309 312 315
228 230 232 232 232 233 236 237 237 236 236 237 236 235 233 233 234 236 236 236 236 236 237 237 238 239 240 239 239 241 242 242 242 243 245 246 246 246 247 247 249 251 253 255 255 255 255 255 256 259 262 266 267 268 268 269 269 271 271 273 274 277 280 283 286 289 292 294 296 298 299 300 302 302 301 301 301 300 301 302 303 306 309 311 314
229 230 233 232 231 231 233 235 237 238 239 240 240 239 238 236 236 237 238 238 238 238 239 239 239 240 240 240 239 239 241 242 241 241 244 246 248 249 250 251 251 253 254 255 256 256 257 257 259 261 263 265 267 269 270 272 273 273 274 275 277 280 283 286 288 290 292 294 295 297 297 298 299 299 299 299 297 297 299 301 303 305 308 311 315
231 232 233 232 230 231 231 231 232 233 235 237 239 240 240 239 237 237 237 238 238 239 240 240 240 241 241 241 240 240 242 244 242 241 243 245 247 249 251 252 253 254 255 256 256 257 258 259 261 263 264 264 266 268 270 272 274 275 277 279 280 282 284 285 286 286 288 289 290 291 293 294 294 294 294 293 292 293 296 298 301 305 308 312 315
226 228 229 229 228 228 229 229 229 230 231 233 235 237 238 239 239 237 236 237 238 238 239 240 241 242 242 243 243 242 244 246 245 243 245 247 248 249 250 251 253 254 255 257 258 260 261 261 261 262 264 265 266 268 270 271 273 276 278 280 281 282 282 283 284 284 285 286 286 287 289 290 291 294 295 294 294 296 298 301 304 306 309 312 313
219 220 221 222 223 225 227 228 229 230 231 233 235 235 235 236 238 239 236 235 236 237 237 238 240 241 243 245 245 245 247 249 248 247 248 249 249 251 251 252 253 255 256 258 259 260 262 263 264 265 267 269 270 270 271 272 274 275 278 279 280 280 281 282 284 285 286 287 289 291 293 293 295 297 298 298 299 300 301 303 304 305 307 309 309
212 213 215 217 220 222 225 226 229 231 232 234 236 237 235 232 232 235 236 235 235 235 236 238 239 241 243 244 245 246 248 249 248 248 250 251 251 253 253 254 254 255 257 259 260 260 261 263 264 266 268 270 271 273 274 275 276 277 278 279 279 280 281 282 283 285 286 286 288 290 292 294 295 296 297 298 299 301 302 303 304 306 307 306 306
214 214 216 218 218 219 221 222 226 229 231 235 238 241 240 234 228 228 231 231 232 234 234 236 238 239 241 243 244 245 247 248 249 250 252 254 255 255 256 256 256 257 258 260 262 262 262 263 264 266 267 268 270 272 274 275 277 278 278 278 278 279 281 282 283 281 281 282 284 286 288 290 292 294 296 298 300 302 302 303 306 308 307 305 306
212 212 213 215 216 217 218 219 223 228 232 236 240 243 245 240 233 229 228 229 229 231 232 234 235 237 240 242 243 244 247 250 253 254 256 257 257 258 259 258 258 259 260 261 262 263 263 263 264 266 267 268 269 271 273 274 275 277 277 276 276 277 279 281 282 280 279 279 281 284 287 289 292 294 297 299 301 301 301 303 306 305 304 304 306
203 204 206 209 213 215 215 215 218 221 223 229 236 237 240 242 238 231 227 227 229 230 232 235 237 238 239 239 241 245 250 254 256 254 254 255 257 259 261 261 261 260 260 261 262 263 263 264 266 268 269 269 270 271 272 273 274 275 275 275 276 277 278 278 279 279 280 281 281 282 284 286 289 291 294 296 298 298 300 302 303 301 301 303 305
200 202 205 209 213 214 214 213 213 214 217 224 230 228 229 238 239 229 224 226 231 232 231 234 239 243 241 240 244 250 255 259 258 253 250 252 255 258 260 262 261 261 261 261 262 262 264 266 267 268 270 272 272 272 272 273 273 273 273 274 276 277 278 279 279 280 282 284 284 285 286 287 289 291 293 294 294 294 295 297 297 298 299 301 303
205 207 210 212 212 211 212 215 216 216 221 226 227 225 226 234 239 233 228 230 233 230 227 229 234 239 240 241 246 251 256 258 255 250 249 251 253 256 259 259 259 259 260 260 261 263 265 266 265 266 270 273 275 275 274 272 271 271 272 273 275 278 280 282 283 283 283 284 285 287 288 289 291 293 294 294 292 291 290 290 291 292 294 297 299
207 211 212 212 209 206 209 216 221 222 223 224 225 226 228 230 232 230 230 233 234 230 229 230 233 236 238 239 241 244 251 257 257 251 250 253 254 255 257 257 258 259 259 260 261 261 261 261 262 262 265 268 271 273 272 271 270 270 271 273 275 278 280 281 281 282 283 283 284 286 287 288 289 291 292 292 292 292 292 291 291 291 292 293 295
205 210 212 214 212 207 208 215 223 225 225 226 226 226 226 227 225 219 219 223 225 227 233 236 238 240 243 243 240 240 245 253 258 258 255 254 255 256 258 258 258 258 258 258 259 260 260 260 261 261 262 263 264 266 268 269 269 270 271 272 274 276 278 279 281 281 282 283 284 284 286 287 287 288 289 289 290 292 294 294 294 293 293 293 293
201 204 208 212 213 211 210 213 220 225 228 229 232 234 236 239 238 232 226 224 222 227 235 239 241 242 246 250 249 244 244 248 254 256 255 254 257 259 260 260 259 258 259 260 263 265 267 267 268 268 267 264 263 263 264 266 268 269 270 272 274 276 278 279 281 282 283 284 284 284 284 284 284 285 286 288 290 293 295 295 295 295 295 295 295
197 199 201 201 202 203 202 203 208 215 219 224 230 236 240 244 245 242 238 235 234 239 242 243 243 244 246 248 249 246 244 245 248 249 249 252 257 260 262 263 261 259 260 264 268 271 272 274 275 274 269 264 263 263 263 265 267 268 270 272 273 274 275 276 278 279 281 282 282 282 282 282 283 285 287 289 293 296 298 297 298 299 298 298 298
198 197 198 196 196 197 196 196 197 197 199 204 210 215 221 228 231 232 233 234 237 240 241 241 243 246 248 247 245 245 246 247 247 247 246 249 253 256 259 263 264 261 264 270 273 272 273 276 277 274 266 261 261 262 263 265 267 268 270 270 271 271 272 274 276 277 279 280 280 279 280 282 285 287 289 290 293 296 296 296 298 301 300 300 300
207 205 203 202 202 202 201 200 198 196 197 199 200 202 207 211 213 215 219 224 228 232 235 237 240 244 246 243 240 242 245 246 247 249 251 252 253 253 253 256 258 258 262 268 271 270 268 268 269 267 263 261 261 262 263 265 267 268 269 270 271 273 275 276 278 279 280 280 280 279 280 281 283 285 286 287 289 291 292 293 296 299 301 301 301
220 220 218 217 217 217 216 215 212 210 210 209 209 211 213 216 219 221 222 225 226 227 230 234 238 241 244 243 242 243 246 249 250 251 254 257 258 258 257 256 256 257 259 262 265 267 267 265 264 264 265 266 267 268 268 269 270 271 272 272 273 273 275 277 279 280 280 281 281 281 281 282 283 283 283 284 285 287 288 290 293 297 299 300 301
229 229 230 230 231 232 232 233 232 230 228 227 226 227 227 229 231 234 236 239 241 242 243 244 246 250 252 254 256 257 257 259 261 261 261 263 265 267 267 267 266 267 268 268 268 268 269 268 268 269 271 273 274 275 275 276 276 277 277 277 277 276 276 277 278 279 280 281 281 281 282 283 284 284 283 282 282 284 285 287 290 294 296 298 299
235 233 233 233 235 237 238 240 241 243 243 242 242 242 243 243 244 245 247 249 250 251 253 253 254 256 258 260 263 265 266 267 269 270 270 271 272 272 272 272 272 272 272 272 273 273 273 273 273 273 274 276 278 279 280 282 282 282 282 282 281 280 279 279 280 281 282 283 285 286 285 284 285 285 284 282 281 281 283 285 288 291 293 294 294
242 238 237 235 235 236 238 240 242 244 246 248 249 249 250 251 252 252 253 255 256 257 258 259 259 260 260 261 263 265 267 269 270 271 272 273 274 274 274 274 273 273 272 272 273 273 273 274 275 275 276 277 278 280 282 284 285 286 287 287 286 285 284 283 283 284 285 286 288 288 288 287 288 287 285 284 282 281 282 283 285 288 290 291 292
247 244 242 241 240 240 241 242 244 245 247 249 250 251 252 253 254 255 256 257 259 260 261 262 263 263 264 264 265 265 266 268 269 270 272 272 272 272 273 273 273 273 273 273 274 273 273 274 275 276 277 278 279 280 281 282 283 284 285 286 286 286 286 286 286 286 286 287 288 289 289 289 290 289 288 287 285 284 284 284 285 286 287 289 290
254 249 246 244 244 245 245 246 247 248 249 251 252 253 253 253 254 255 256 257 258 259 261 262 263 264 265 266 267 268 268 269 269 270 271 272 272 271 271 271 271 271 271 272 272 272 272 273 274 275 276 276 276 277 277 278 279 280 280 281 281 281 282 282 283 284 285 286 287 288 289 290 290 291 291 291 290 289 288 287 287 287 287 288 289
262 257 252 248 246 246 246 248 249 250 251 252 253 254 255 256 256 256 256 257 258 258 259 261 262 263 264 265 266 268 268 269 269 270 270 271 271 271 271 270 269 269 269 269 269 269 270 270 271 272 272 272 273 273 273 274 274 275 275 276 277 277 278 278 278 279 280 281 283 284 285 286 288 289 290 291 291 292 291 290 289 289 289 289 289
269 266 262 258 253 251 249 249 250 251 253 253 254 255 256 257 258 259 259 259 259 259 259 260 260 262 264 265 266 266 267 269 269 269 269 269 269 270 271 271 271 270 269 269 269 268 269 269 270 270 270 270 270 271 271 271 271 271 272 273 274 274 275 275 275 275 276 276 277 279 280 281 282 283 284 285 286 287 288 289 289 289 289 289 289
272 270 269 267 264 260 257 254 252 252 252 254 256 257 258 258 259 260 262 262 262 262 261 261 261 261 262 263 264 265 266 267 268 268 269 269 269 269 269 270 270 271 270 270 269 269 269 269 270 270 270 271 270 271 271 271 270 270 271 271 272 273 273 274 274 274 275 275 275 275 276 276 277 278 279 279 280 281 282 283 284 285 285 286 287
271 269 268 267 267 265 263 261 259 256 255 254 254 256 258 260 260 261 262 264 265 265 266 266 265 264 262 262 263 265 265 266 266 267 267 267 267 267 268 268 269 270 270 271 270 269 269 269 269 269 271 271 272 272 272 272 272 272 272 272 273 273 274 275 275 276 276 276 276 276 276 276 276 276 276 277 277 277 278 279 279 280 281 282 283
271 271 269 266 265 264 264 264 263 262 261 259 257 257 256 257 259 260 261 262 264 265 267 270 271 271 269 267 266 267 267 267 267 267 267 268 268 268 268 268 268 269 271 272 272 271 270 270 270 271 272 273 273 273 272 273 274 274 274 274 274 275 276 276 277 278 279 279 280 280 280 280 280 279 279 278 278 277 278 278 279 279 280 280 280
270 271 270 270 268 267 265 264 263 262 262 261 260 259 258 257 257 258 258 259 260 262 264 267 269 271 273 273 273 272 271 271 271 270 269 269 269 269 270 270 270 270 270 272 273 273 273 272 272 273 275 275 275 274 274 274 275 276 276 276 276 277 278 278 279 279 280 281 282 282 283 283 284 284 283 283 282 282 282 281 281 282 282 282 282
268 269 269 270 270 270 269 267 266 264 264 263 262 261 261 260 260 259 258 258 258 260 262 264 265 267 269 271 273 273 272 272 272 271 270 269 269 269 270 270 271 271 271 271 272 273 274 274 274 274 275 275 275 275 275 275 276 277 278 278 278 279 280 280 280 281 281 281 282 283 284 284 284 285 286 286 286 286 286 286 286 287 286 286 286
267 268 269 269 270 270 270 270 269 268 267 266 265 264 263 263 262 262 261 260 259 260 262 264 265 267 268 270 272 272 273 272 271 270 270 270 270 269 269 269 269 270 271 272 273 273 274 275 275 274 274 273 273 273 274 275 276 277 278 278 279 280 281 281 282 282 282 283 284 284 284 285 285 285 286 286 287 287 288 288 289 289 289 289 289
268 269 268 268 269 269 269 269 269 269 268 268 268 267 266 265 264 263 263 262 262 262 262 263 264 266 268 270 272 272 272 272 272 273 274 274 274 273 272 271 271 271 272 273 274 274 274 275 276 275 275 274 273 274 275 275 276 277 278 278 279 280 281 282 282 283 283 284 284 284 285 285 285 284 285 285 286 287 288 288 288 289 289 290 290
269 269 269 267 267 267 267 268 268 268 267 267 267 267 267 267 266 266 266 265 265 265 264 264 265 266 268 269 270 270 270 271 272 274 275 276 276 276 276 276 275 275 274 274 275 275 275 276 276 276 276 276 276 276 276 277 277 278 279 279 280 280 281 282 282 283 283 283 284 284 284 284 284 284 284 285 286 286 287 287 287 288 288 289 290
267 267 268 268 267 266 266 266 266 266 266 266 266 266 266 266 267 267 268 268 268 268 268 267 268 269 269 270 269 270 271 272 273 274 275 275 275 276 277 277 277 276 275 275 275 275 276 276 276 277 277 277 277 277 277 278 278 278 279 280 280 281 281 282 282 282 282 283 283 282 281 281 282 283 283 284 285 285 286 286 287 287 288 288 289
268 268 269 269 269 268 267 265 264 264 264 264 264 265 266 266 267 268 268 269 269 269 270 270 271 271 272 271 271 271 272 273 274 275 275 275 275 275 276 277 277 277 277 277 276 276 276 276 276 277 277 277 277 278 278 278 278 279 279 279 280 280 281 281 281 281 281 281 281 280 279 280 280 281 281 282 282 283 284 285 286 287 287 288 289
269 271 272 271 270 269 267 266 264 263 263 263 263 264 265 266 267 268 269 270 270 270 270 271 272 273 273 273 273 273 273 273 273 274 274 275 275 275 275 276 276 276 276 277 277 277 278 278 278 278 278 277 277 277 277 278 278 279 279 279 279 279 279 279 280 280 280 280 280 279 280 280 281 281 282 282 283 283 284 285 285 286 287 287 288
270 271 272 272 271 270 268 267 266 265 265 264 263 263 263 265 266 267 268 269 270 271 271 271 272 273 273 274 275 275 275 275 275 275 275 275 275 275 275 275 276 277 277 277 278 278 278 278 278 278 279 279 279 278 278 278 278 278 278 278 278 278 278 278 279 279 280 280 280 280 280 280 281 282 283 283 284 284 285 285 286 287 287 288 289
270 271 273 273 271 269 268 268 268 267 267 266 265 265 265 265 265 265 266 267 269 270 271 272 273 273 274 275 275 276 276 277 277 277 277 277 277 277 277 277 277 278 278 279 279 279 279 279 279 279 279 280 280 280 280 280 279 279 278 278 277 277 278 278 279 279 279 279 280 280 280 280 281 282 283 284 285 285 285 285 286 287 287 288 288
270 272 274 273 270 268 268 269 269 268 267 266 266 266 266 266 265 265 266 266 268 269 270 271 272 273 274 275 275 276 276 277 277 278 278 279 279 280 280 281 281 280 280 279 279 280 280 280 280 280 280 280 280 281 281 281 281 281 281 280 280 280 281 280 280 279 279 280 280 280 281 282 282 283 284 285 285 285 285 285 285 286 286 287 287
270 272 274 274 271 270 269 269 268 267 266 265 265 265 265 265 265 266 266 266 267 267 269 270 271 271 272 273 274 275 276 276 277 277 278 279 280 281 282 282 283 282 282 281 281 281 281 281 281 281 281 281 280 280 280 281 281 281 281 282 283 283 283 282 282 282 282 282 282 282 282 283 283 283 284 284 283 283 284 284 284 285 285 285 286
272 274 276 275 273 270 268 267 266 265 264 264 263 263 263 263 263 264 265 265 265 266 266 267 268 269 270 271 273 274 276 277 278 279 279 280 281 282 282 283 284 284 285 285 284 284 284 283 283 283 283 282 282 282 282 282 281 281 282 282 283 282 282 283 283 284 284 284 284 284 284 284 283 283 283 282 282 282 283 283 283 284 284 284 285
274 275 275 273 271 268 266 265 264 263 263 262 262 261 262 262 263 263 263 264 264 265 266 267 268 270 272 273 275 277 279 281 282 284 284 285 285 286 286 287 287 288 288 288 288 287 286 285 284 284 284 283 283 283 283 282 282 283 283 283 283 282 283 283 283 283 284 284 285 285 286 286 285 285 284 283 282 282 282 282 283 284 284 285 286
Height
3225 3226 3227 3229 3230 3231 3233 3234 3235 3236 3237 3238 3239 3240 3240 3241 3242 3243 3244 3245 3246 3247 3248 3249 3250 3250 3251 3251 3252 3252 3253 3253 3254 3255 3255 3256 3256 3257 3257 3257 3258 3258 3259 3259 3259 3260 3260 3260 3261 3261 3262 3262 3262 3263 3263 3263 3263 3263 3263 3264 3264 3263 3263 3263 3263 3263 3263 3262 3262 3262 3261 3260 3260 3259 3258 3258 3257 3255 3254 3254 3253 3252 3251 3250 3248
3223 3224 3225 3227 3228 3229 3231 3232 3233 3234 3235 3236 3237 3238 3239 3240 3241 3242 3243 3244 3245 3246 3247 3248 3249 3250 3250 3251 3251 3252 3252 3253 3253 3254 3254 3255 3256 3256 3256 3257 3257 3257 3258 3258 3259 3259 3259 3259 3260 3260 3261 3261 3261 3262 3262 3262 3262 3262 3262 3262 3262 3262 3262 3262 3262 3261 3261 3261 3260 3260 3259 3258 3258 3257 3257 3256 3255 3254 3253 3252 3251 3250 3250 3249 3247
3221 3222 3223 3225 3226 3227 3229 3230 3231 3232 3233 3234 3236 3237 3238 3239 3240 3241 3242 3243 3244 3245 3246 3247 3248 3248 3249 3250 3250 3251 3252 3252 3253 3253 3254 3255 3255 3255 3256 3256 3257 3257 3257 3258 3258 3258 3258 3259 3259 3259 3260 3260 3260 3261 3261 3261 3261 3261 3261 3261 3261 3261 3261 3260 3260 3260 3260 3259 3259 3258 3257 3256 3256 3256 3255 3254 3253 3252 3252 3251 3250 3249 3248 3247 3246
3219 3220 3221 3222 3224 3225 3227 3228 3229 3230 3231 3233 3234 3235 3236 3237 3238 3239 3240 3241 3242 3243 3244 3245 3246 3247 3248 3249 3249 3250 3251 3252 3252 3253 3253 3254 3254 3255 3255 3256 3256 3256 3257 3257 3257 3257 3257 3258 3258 3258 3259 3259 3259 3259 3260 3260 3260 3260 3260 3260 3260 3259 3259 3259 3259 3259 3259 3258 3258 3257 3256 3256 3255 3254 3254 3253 3252 3251 3250 3249 3248 3248 3247 3246 3245
3217 3218 3219 3220 3221 3223 3225 3226 3227 3228 3230 3231 3232 3233 3235 3236 3237 3238 3239 3239 3240 3242 3243 3244 3245 3245 3246 3247 3248 3249 3249 3250 3251 3252 3253 3253 3254 3254 3255 3255 3255 3256 3256 3256 3256 3257 3257 3257 3257 3257 3258 3258 3258 3258 3258 3258 3259 3259 3258 3258 3258 3258 3258 3258 3258 3257 3257 3257 3257 3256 3255 3255 3254 3253 3252 3251 3250 3250 3249 3248 3247 3246 3245 3245 3244
3215 3215 3216 3217 3219 3221 3222 3224 3225 3226 3228 3229 3230 3231 3232 3234 3235 3236 3237 3238 3239 3240 3241 3242 3243 3244 3245 3246 3247 3248 3248 3249 3250 3251 3252 3252 3253 3254 3254 3254 3255 3255 3255 3255 3256 3256 3256 3256 3256 3256 3257 3257 3257 3257 3257 3257 3257 3258 3257 3257 3257 3257 3257 3257 3256 3256 3256 3255 3255 3255 3254 3253 3252 3252 3251 3250 3249 3248 3247 3246 3246 3245 3243 3243 3242
3212 3213 3215 3216 3217 3219 3220 3222 3223 3224 3225 3226 3228 3229 3230 3231 3233 3234 3235 3236 3237 3239 3240 3241 3242 3243 3244 3244 3245 3246 3247 3248 3248 3249 3250 3251 3252 3252 3253 3253 3254 3254 3254 3255 3255 3255 3255 3255 3255 3256 3256 3256 3256 3256 3256 3256 3256 3256 3256 3256 3256 3256 3256 3255 3255 3254 3254 3254 3253 3253 3252 3252 3251 3250 3249 3248 3247 3246 3245 3244 3244 3243 3242 3241 3241
3210 3211 3212 3214 3215 3217 3218 3220 3221 3222 3223 3224 3225 3226 3228 3229 3230 3231 3232 3234 3235 3237 3238 3239 3240 3241 3242 3243 3244 3245 3246 3246 3247 3248 3248 3249 3250 3251 3251 3252 3252 3253 3253 3253 3254 3254 3254 3254 3255 3255 3254 3254 3254 3254 3254 3255 3255 3255 3255 3255 3254 3254 3254 3254 3253 3253 3253 3252 3252 3251 3251 3251 3250 3249 3248 3247 3246 3245 3244 3243 3241 3241 3240 3240 3239
3207 3208 3210 3211 3213 3214 3215 3217 3218 3219 3220 3221 3223 3224 3225 3226 3228 3229 3230 3232 3233 3234 3236 3237 3238 3240 3240 3241 3242 3243 3244 3245 3245 3246 3247 3247 3248 3249 3249 3250 3250 3251 3251 3252 3252 3253 3253 3253 3253 3253 3253 3253 3253 3253 3253 3253 3253 3253 3253 3253 3252 3252 3252 3252 3252 3251 3251 3251 3250 3250 3249 3249 3249 3248 3247 3246 3244 3243 3242 3241 3240 3239 3238 3238 3238
3203 3204 3206 3208 3210 3211 3212 3214 3216 3217 3218 3219 3220 3221 3223 3224 3225 3226 3228 3229 3230 3232 3233 3235 3236 3237 3238 3239 3240 3241 3242 3242 3243 3244 3245 3245 3246 3247 3247 3248 3249 3249 3250 3250 3250 3251 3251 3251 3252 3252 3252 3252 3252 3252 3252 3252 3252 3251 3251 3251 3251 3250 3250 3250 3250 3250 3249 3249 3248 3248 3247 3247 3247 3246 3245 3244 3243 3241 3240 3239 3238 3237 3236 3235 3235
3199 3201 3203 3204 3206 3207 3208 3210 3212 3213 3215 3216 3217 3219 3220 3222 3223 3224 3225 3226 3228 3229 3230 3232 3234 3235 3236 3237 3238 3239 3239 3239 3240 3242 3242 3243 3244 3245 3245 3246 3247 3247 3248 3248 3248 3248 3249 3249 3249 3250 3250 3250 3250 3250 3250 3250 3250 3250 3250 3249 3249 3249 3249 3249 3248 3248 3247 3246 3246 3246 3245 3245 3245 3244 3243 3242 3241 3239 3238 3237 3235 3234 3233 3232 3232
3197 3198 3199 3201 3202 3203 3204 3206 3207 3209 3210 3211 3213 3215 3217 3218 3219 3221 3222 3223 3225 3226 3228 3229 3231 3232 3233 3234 3235 3236 3237 3236 3238 3240 3240 3240 3241 3242 3243 3244 3244 3245 3245 3246 3246 3246 3246 3247 3247 3247 3247 3247 3247 3248 3248 3248 3248 3248 3248 3248 3248 3247 3247 3247 3246 3246 3245 3244 3244 3244 3243 3242 3242 3241 3241 3240 3238 3237 3236 3235 3234 3232 3231 3230 3229
3194 3195 3196 3197 3198 3199 3201 3202 3203 3204 3206 3207 3208 3210 3212 3214 3216 3217 3219 3220 3222 3223 3225 3226 3228 3229 3230 3231 3232 3234 3234 3234 3236 3237 3237 3238 3238 3239 3240 3241 3242 3242 3243 3243 3244 3244 3244 3244 3245 3245 3245 3245 3245 3245 3245 3245 3246 3246 3246 3246 3246 3245 3245 3244 3244 3243 3243 3242 3241 3241 3241 3240 3239 3239 3239 3237 3236 3235 3234 3233 3232 3231 3229 3228 3227
3191 3192 3193 3194 3195 3196 3197 3198 3199 3201 3202 3203 3204 3206 3208 3210 3212 3214 3215 3217 3218 3220 3222 3223 3224 3226 3227 3228 3230 3231 3232 3231 3233 3234 3234 3235 3236 3236 3237 3238 3239 3240 3240 3241 3241 3242 3242 3242 3242 3242 3242 3242 3242 3243 3243 3243 3243 3244 3244 3244 3243 3243 3243 3242 3241 3241 3240 3239 3239 3238 3238 3238 3237 3237 3236 3235 3234 3233 3232 3231 3230 3229 3228 3226 3225
3189 3190 3191 3192 3193 3193 3194 3195 3196 3197 3198 3199 3201 3202 3203 3205 3207 3209 3211 3214 3215 3217 3219 3220 3221 3223 3224 3225 3227 3228 3228 3228 3229 3231 3231 3232 3233 3233 3234 3235 3236 3237 3237 3238 3238 3239 3239 3239 3240 3240 3240 3239 3239 3239 3240 3240 3240 3241 3241 3241 3241 3240 3240 3240 3239 3239 3238 3237 3236 3236 3236 3235 3234 3234 3233 3233 3231 3230 3229 3228 3227 3226 3225 3224 3222
3187 3188 3188 3189 3190 3191 3192 3193 3194 3195 3196 3197 3198 3198 3199 3201 3203 3205 3207 3210 3212 3214 3216 3217 3218 3220 3221 3222 3224 3225 3224 3224 3226 3228 3229 3229 3230 3231 3231 3232 3233 3233 3234 3235 3235 3236 3236 3236 3236 3237 3237 3237 3236 3237 3237 3237 3237 3237 3237 3238 3237 3237 3237 3237 3237 3236 3235 3234 3233 3233 3233 3233 3232 3231 3231 3230 3229 3227 3225 3224 3224 3223 3221 3220 3220
3184 3185 3186 3187 3188 3189 3190 3191 3192 3192 3193 3194 3194 3195 3196 3197 3199 3201 3204 3206 3208 3210 3212 3214 3215 3217 3218 3219 3221 3221 3220 3222 3224 3226 3226 3227 3228 3228 3228 3229 3230 3230 3231 3231 3232 3232 3232 3233 3233 3234 3234 3233 3234 3234 3234 3234 3233 3233 3234 3234 3234 3234 3234 3234 3233 3233 3232 3232 3231 3230 3230 3230 3229 3228 3228 3227 3226 3224 3222 3221 3221 3219 3218 3217 3217
3182 3183 3184 3185 3186 3187 3188 3189 3190 3191 3191 3191 3192 3192 3192 3193 3195 3198 3200 3202 3203 3206 3208 3210 3212 3213 3215 3216 3217 3217 3217 3220 3222 3222 3223 3224 3224 3225 3226 3226 3227 3227 3228 3228 3228 3229 3229 3229 3230 3230 3230 3230 3231 3231 3231 3231 3231 3230 3230 3230 3230 3230 3231 3231 3230 3229 3228 3228 3229 3228 3227 3227 3226 3225 3225 3224 3223 3221 3219 3218 3217 3216 3214 3214 3213
3180 3181 3182 3183 3184 3185 3186 3187 3188 3189 3190 3190 3190 3190 3190 3191 3192 3194 3197 3199 3199 3201 3204 3207 3209 3210 3211 3213 3213 3212 3213 3216 3217 3218 3219 3220 3221 3222 3222 3223 3224 3224 3225 3225 3225 3225 3225 3226 3226 3226 3226 3226 3227 3228 3228 3228 3228 3228 3227 3227 3227 3227 3227 3227 3227 3227 3225 3225 3224 3224 3223 3223 3223 3222 3222 3221 3220 3219 3217 3215 3214 3212 3211 3210 3210
3178 3179 3180 3181 3182 3183 3184 3185 3186 3187 3188 3189 3189 3189 3189 3190 3191 3194 3196 3196 3196 3198 3200 3203 3206 3206 3207 3208 3208 3207 3208 3211 3212 3214 3215 3217 3218 3219 3219 3219 3220 3221 3221 3222 3221 3221 3221 3221 3221 3222 3223 3223 3224 3224 3225 3225 3225 3224 3224 3224 3223 3223 3224 3224 3224 3223 3222 3221 3220 3220 3219 3219 3218 3218 3217 3217 3216 3215 3214 3212 3211 3210 3208 3207 3206
3176 3177 3178 3179 3180 3181 3182 3183 3184 3185 3186 3187 3187 3188 3189 3189 3190 3192 3194 3194 3194 3196 3198 3199 3201 3202 3202 3203 3204 3205 3207 3209 3211 3212 3213 3214 3215 3215 3215 3215 3216 3217 3217 3217 3217 3217 3216 3215 3215 3217 3219 3219 3220 3220 3220 3221 3221 3221 3221 3220 3220 3220 3220 3220 3219 3219 3218 3218 3217 3216 3215 3215 3214 3214 3213 3211 3211 3210 3209 3208 3207 3206 3205 3204 3202
3174 3175 3176 3177 3178 3179 3181 3181 3182 3183 3184 3185 3186 3186 3188 3188 3189 3190 3192 3192 3194 3196 3196 3196 3197 3199 3200 3199 3198 3201 3204 3207 3210 3211 3211 3211 3212 3212 3212 3212 3213 3213 3213 3212 3212 3213 3212 3211 3211 3213 3215 3215 3216 3216 3216 3216 3217 3217 3216 3216 3216 3216 3216 3215 3215 3215 3214 3213 3213 3212 3212 3211 3210 3209 3208 3207 3206 3206 3205 3204 3203 3201 3201 3200 3198
3173 3174 3175 3176 3177 3178 3179 3180 3181 3182 3183 3183 3184 3185 3186 3187 3188 3189 3190 3190 3192 3194 3194 3194 3195 3197 3198 3197 3196 3198 3202 3205 3207 3208 3208 3209 3209 3209 3209 3209 3209 3209 3209 3209 3209 3210 3210 3210 3210 3211 3213 3212 3212 3212 3212 3212 3212 3212 3212 3212 3212 3212 3211 3211 3210 3210 3210 3209 3208 3208 3207 3206 3205 3205 3204 3203 3202 3201 3201 3200 3199 3197 3196 3195 3194
3172 3173 3174 3175 3176 3177 3178 3179 3179 3180 3181 3181 3182 3183 3183 3185 3186 3187 3188 3189 3190 3192 3192 3193 3193 3194 3195 3196 3196 3197 3199 3201 3203 3204 3205 3205 3206 3206 3205 3205 3205 3206 3206 3206 3207 3207 3207 3207 3207 3208 3209 3209 3208 3209 3209 3209 3209 3209 3208 3208 3208 3208 3207 3207 3206 3206 3205 3205 3204 3204 3203 3202 3201 3200 3199 3198 3197 3196 3196 3195 3195 3193 3192 3191 3190
3171 3172 3173 3174 3175 3176 3177 3177 3178 3179 3180 3180 3181 3182 3182 3183 3184 3185 3186 3187 3188 3190 3191 3191 3192 3192 3192 3193 3194 3195 3196 3197 3199 3200 3201 3201 3202 3202 3202 3202 3202 3203 3203 3203 3204 3204 3204 3204 3205 3205 3205 3204 3204 3204 3204 3205 3205 3205 3204 3204 3203 3203 3203 3202 3202 3201 3201 3201 3200 3200 3200 3199 3197 3196 3196 3195 3194 3193 3192 3192 3191 3190 3188 3187 3187
3170 3171 3172 3173 3174 3175 3176 3177 3177 3178 3179 3180 3181 3181 3182 3183 3183 3184 3185 3186 3187 3188 3189 3190 3190 3191 3191 3192 3192 3193 3194 3195 3195 3196 3197 3198 3198 3198 3198 3198 3198 3199 3199 3200 3200 3200 3200 3201 3201 3201 3201 3200 3200 3199 3200 3200 3201 3200 3200 3200 3199 3198 3198 3197 3197 3197 3196 3196 3196 3195 3195 3194 3193 3193 3192 3191 3191 3189 3188 3187 3186 3186 3184 3183 3183
3168 3169 3170 3171 3172 3173 3174 3175 3176 3177 3178 3179 3180 3180 3181 3181 3182 3183 3184 3185 3186 3187 3188 3188 3189 3189 3190 3191 3191 3192 3192 3193 3193 3194 3195 3195 3196 3196 3196 3196 3195 3195 3195 3196 3196 3197 3197 3197 3197 3197 3196 3196 3195 3195 3196 3196 3196 3196 3195 3195 3195 3194 3193 3193 3192 3192 3191 3191 3191 3191 3190 3189 3189 3188 3188 3187 3187 3186 3184 3183 3182 3181 3180 3179 3179
3166 3167 3168 3169 3170 3171 3172 3173 3174 3175 3176 3177 3178 3179 3179 3180 3181 3181 3182 3183 3184 3185 3185 3186 3187 3188 3188 3189 3189 3190 3190 3191 3191 3191 3192 3192 3193 3193 3193 3193 3192 3192 3192 3192 3193 3193 3193 3193 3193 3193 3193 3193 3193 3192 3192 3192 3192 3192 3191 3190 3190 3189 3189 3188 3188 3187 3187 3187 3187 3186 3186 3185 3184 3183 3183 3183 3182 3182 3181 3180 3178 3178 3177 3176 3175
3164 3165 3166 3167 3168 3169 3170 3171 3172 3173 3173 3174 3175 3176 3177 3178 3178 3179 3180 3180 3181 3182 3183 3184 3185 3185 3185 3186 3186 3187 3187 3188 3188 3188 3188 3189 3189 3189 3189 3189 3189 3189 3189 3189 3190 3190 3190 3190 3190 3190 3190 3190 3190 3190 3189 3189 3189 3188 3187 3187 3186 3185 3185 3184 3184 3184 3183 3183 3182 3182 3182 3181 3180 3180 3179 3179 3179 3178 3177 3176 3175 3174 3174 3173 3172
3162 3162 3163 3164 3165 3166 3167 3168 3169 3170 3171 3171 3172 3173 3174 3175 3175 3176 3177 3177 3178 3179 3179 3180 3181 3182 3182 3182 3183 3183 3183 3184 3184 3184 3185 3185 3185 3185 3185 3185 3185 3185 3185 3186 3186 3186 3186 3186 3186 3186 3187 3187 3186 3186 3186 3185 3185 3184 3184 3183 3182 3182 3181 3181 3180 3180 3179 3179 3178 3178 3178 3177 3177 3176 3175 3175 3174 3174 3173 3173 3172 3171 3170 3169 3168
3160 3160 3160 3161 3162 3162 3163 3164 3165 3166 3167 3168 3169 3169 3170 3171 3172 3172 3173 3174 3174 3175 3176 3176 3177 3178 3178 3178 3179 3179 3179 3180 3180 3180 3180 3180 3181 3181 3181 3181 3181 3181 3181 3181 3182 3182 3182 3181 3181 3181 3182 3182 3182 3182 3182 3181 3181 3181 3180 3179 3179 3178 3178 3177 3177 3176 3175 3175 3175 3174 3174 3173 3173 3172 3171 3170 3170 3170 3169 3169 3168 3167 3167 3166 3165
3158 3158 3158 3159 3159 3160 3160 3161 3162 3162 3163 3164 3165 3165 3166 3167 3168 3168 3169 3170 3171 3171 3172 3172 3173 3173 3174 3174 3175 3175 3175 3175 3175 3175 3175 3176 3176 3176 3176 3176 3176 3176 3176 3177 3177 3177 3177 3177 3176 3177 3177 3177 3177 3177 3177 3177 3176 3176 3175 3175 3174 3174 3174 3173 3173 3172 3171 3171 3170 3170 3170 3169 3169 3168 3167 3166 3166 3166 3165 3165 3164 3163 3163 3162 3161
3156 3156 3156 3157 3157 3157 3158 3158 3159 3159 3160 3161 3161 3162 3162 3163 3163 3164 3165 3165 3166 3167 3167 3168 3168 3169 3169 3170 3170 3171 3171 3171 3171 3171 3171 3171 3171 3171 3172 3172 3172 3172 3172 3172 3172 3172 3172 3172 3172 3172 3172 3172 3172 3172 3172 3171 3171 3171 3170 3170 3169 3169 3169 3168 3168 3168 3167 3166 3166 3165 3165 3165 3164 3164 3163 3162 3162 3161 3161 3160 3160 3159 3158 3158 3157
3154 3154 3154 3155 3155 3155 3155 3155 3156 3156 3157 3157 3158 3158 3159 3159 3160 3160 3160 3161 3162 3162 3163 3163 3164 3164 3165 3165 3166 3166 3167 3167 3167 3167 3167 3167 3167 3167 3167 3167 3167 3167 3167 3167 3167 3167 3167 3167 3167 3167 3167 3167 3167 3166 3166 3166 3166 3165 3165 3164 3164 3164 3164 3163 3163 3163 3162 3161 3161 3160 3160 3160 3159 3159 3159 3158 3157 3157 3156 3156 3155 3154 3154 3153 3153
3151 3152 3152 3152 3152 3153 3153 3153 3153 3153 3154 3154 3155 3155 3155 3156 3156 3156 3156 3157 3157 3157 3158 3158 3159 3160 3160 3160 3161 3161 3162 3162 3162 3163 3163 3163 3163 3163 3163 3163 3163 3162 3162 3162 3163 3163 3163 3162 3162 3162 3162 3162 3162 3161 3161 3161 3160 3160 3160 3159 3159 3158 3158 3158 3158 3157 3157 3156 3156 3155 3155 3155 3154 3154 3153 3153 3152 3152 3151 3150 3150 3149 3149 3148 3148
3149 3149 3150 3150 3150 3150 3150 3150 3151 3151 3151 3151 3152 3152 3152 3153 3153 3153 3153 3153 3153 3153 3153 3153 3154 3155 3156 3156 3156 3157 3158 3158 3158 3158 3158 3159 3159 3159 3159 3159 3158 3158 3158 3158 3158 3158 3158 3158 3158 3158 3157 3157 3157 3157 3157 3156 3155 3155 3155 3154 3154 3153 3153 3152 3152 3152 3152 3151 3150 3150 3150 3149 3149 3149 3148 3148 3147 3146 3146 3145 3144 3144 3143 3143 3142
3145 3146 3147 3147 3147 3147 3148 3148 3148 3148 3148 3149 3149 3149 3150 3150 3150 3150 3150 3150 3150 3150 3150 3150 3150 3150 3151 3151 3153 3153 3154 3154 3154 3154 3154 3154 3154 3155 3155 3155 3155 3154 3154 3153 3153 3153 3154 3154 3153 3153 3153 3153 3153 3152 3152 3152 3151 3151 3150 3150 3149 3149 3148 3147 3147 3147 3146 3146 3145 3145 3144 3144 3143 3143 3143 3142 3141 3141 3140 3139 3139 3138 3137 3137 3136
3142 3142 3143 3143 3144 3144 3145 3145 3145 3146 3146 3146 3146 3147 3147 3147 3147 3147 3148 3148 3148 3148 3148 3147 3147 3147 3146 3147 3149 3150 3150 3150 3150 3150 3151 3151 3150 3151 3151 3151 3151 3151 3150 3150 3149 3149 3149 3149 3149 3149 3149 3148 3148 3148 3147 3147 3147 3146 3146 3145 3145 3144 3144 3143 3143 3142 3142 3141 3140 3140 3139 3139 3138 3138 3137 3137 3136 3135 3135 3134 3133 3133 3132 3131 3131
3139 3139 3139 3140 3140 3141 3141 3142 3142 3142 3143 3143 3143 3144 3144 3144 3144 3144 3145 3145 3145 3145 3145 3145 3145 3144 3144 3144 3145 3146 3147 3147 3147 3147 3147 3147 3147 3147 3147 3147 3147 3146 3146 3146 3145 3145 3145 3145 3145 3145 3145 3144 3144 3143 3143 3143 3142 3142 3141 3141 3140 3140 3139 3138 3138 3137 3137 3136 3136 3135 3135 3134 3133 3133 3132 3131 3131 3130 3130 3129 3128 3127 3127 3126 3125
3135 3136 3136 3136 3136 3137 3137 3138 3138 3138 3139 3139 3140 3140 3140 3140 3140 3141 3141 3142 3142 3142 3142 3142 3142 3141 3141 3142 3143 3143 3143 3143 3143 3142 3142 3143 3143 3143 3143 3143 3143 3142 3142 3142 3141 3141 3141 3141 3141 3140 3140 3140 3140 3140 3140 3139 3139 3138 3137 3136 3136 3135 3134 3134 3133 3133 3132 3132 3131 3130 3130 3129 3128 3128 3127 3126 3125 3125 3124 3123 3123 3122 3121 3120 3120
3131 3131 3132 3132 3133 3133 3133 3134 3134 3134 3135 3135 3135 3136 3136 3136 3136 3137 3137 3137 3138 3139 3139 3139 3139 3138 3138 3138 3139 3140 3139 3139 3138 3138 3138 3138 3138 3138 3138 3138 3138 3138 3138 3137 3137 3137 3136 3136 3136 3136 3135 3135 3136 3135 3135 3135 3134 3133 3132 3132 3131 3130 3129 3129 3128 3127 3127 3127 3126 3125 3124 3123 3123 3122 3121 3121 3120 3119 3118 3117 3117 3116 3115 3114 3113
3127 3128 3128 3128 3129 3129 3129 3129 3130 3130 3131 3131 3131 3131 3131 3132 3132 3132 3133 3133 3134 3134 3134 3135 3134 3134 3135 3135 3135 3135 3135 3134 3134 3134 3134 3134 3133 3132 3132 3133 3133 3133 3133 3132 3132 3131 3131 3131 3131 3130 3130 3130 3130 3130 3129 3129 3128 3128 3127 3126 3125 3124 3124 3123 3122 3122 3121 3121 3120 3119 3118 3118 3117 3116 3116 3115 3114 3113 3112 3112 3111 3110 3109 3108 3107
3124 3124 3124 3124 3125 3125 3125 3125 3126 3126 3126 3126 3127 3127 3127 3127 3127 3128 3128 3128 3129 3129 3129 3130 3130 3130 3130 3131 3131 3130 3130 3130 3129 3129 3129 3129 3128 3127 3127 3127 3127 3127 3127 3126 3126 3126 3125 3125 3125 3124 3124 3124 3124 3123 3123 3122 3122 3121 3120 3119 3119 3118 3117 3117 3116 3115 3115 3115 3114 3113 3112 3111 3111 3110 3110 3109 3108 3107 3106 3105 3104 3103 3102 3101 3100
3120 3120 3120 3120 3121 3121 3121 3121 3121 3121 3121 3122 3122 3122 3123 3123 3123 3123 3123 3124 3124 3124 3124 3124 3124 3125 3125 3125 3125 3125 3125 3125 3124 3124 3123 3123 3123 3122 3122 3121 3121 3120 3120 3120 3120 3119 3119 3119 3118 3118 3118 3117 3117 3117 3116 3115 3115 3114 3113 3112 3112 3111 3110 3110 3109 3108 3108 3108 3108 3107 3105 3105 3104 3104 3103 3102 3101 3100 3099 3098 3097 3096 3095 3094 3093
3116 3116 3116 3116 3116 3116 3116 3116 3117 3117 3117 3117 3118 3118 3118 3118 3118 3118 3119 3119 3119 3119 3119 3119 3119 3119 3119 3119 3119 3120 3120 3119 3119 3118 3118 3117 3117 3117 3116 3116 3115 3115 3114 3114 3113 3113 3113 3112 3112 3111 3111 3111 3110 3110 3109 3108 3108 3107 3106 3105 3104 3103 3103 3102 3102 3101 3101 3101 3100 3099 3098 3097 3097 3096 3095 3095 3094 3093 3092 3091 3090 3089 3088 3087 3086
3112 3112 3112 3112 3111 3112 3112 3112 3112 3112 3112 3113 3113 3113 3113 3114 3114 3114 3114 3114 3114 3114 3114 3114 3114 3114 3114 3114 3114 3114 3113 3113 3113 3112 3112 3111 3111 3111 3111 3110 3110 3109 3109 3108 3108 3107 3106 3106 3105 3104 3104 3103 3103 3103 3102 3101 3101 3100 3099 3098 3097 3096 3095 3095 3094 3094 3093 3093 3093 3092 3090 3090 3089 3088 3087 3087 3086 3085 3084 3083 3082 3081 3080 3079 3077
3108 3108 3108 3108 3107 3107 3107 3107 3107 3107 3107 3108 3108 3108 3109 3109 3109 3109 3109 3109 3109 3109 3109 3109 3109 3109 3109 3109 3108 3108 3108 3107 3107 3106 3105 3105 3105 3104 3105 3105 3104 3103 3103 3102 3101 3101 3100 3099 3098 3098 3097 3096 3095 3095 3094 3093 3093 3092 3092 3090 3089 3089 3089 3088 3087 3086 3086 3085 3085 3084 3083 3082 3081 3081 3080 3079 3078 3077 3076 3075 3074 3073 3072 3071 3070
3103 3103 3103 3104 3104 3103 3103 3103 3103 3103 3103 3103 3103 3103 3103 3104 3104 3104 3104 3104 3105 3105 3104 3104 3104 3104 3104 3104 3103 3103 3102 3102 3101 3100 3100 3099 3098 3098 3098 3098 3098 3098 3097 3096 3095 3094 3093 3093 3092 3091 3090 3090 3089 3088 3087 3086 3085 3084 3083 3082 3081 3081 3081 3080 3079 3079 3078 3078 3077 3076 3075 3074 3074 3073 3072 3071 3070 3069 3068 3067 3066 3065 3064 3063 3062
3098 3098 3099 3099 3099 3099 3099 3099 3099 3099 3099 3099 3099 3099 3099 3099 3099 3100 3100 3100 3100 3100 3100 3100 3100 3099 3099 3099 3098 3098 3097 3097 3096 3095 3095 3094 3094 3093 3092 3092 3091 3091 3090 3090 3089 3088 3087 3086 3086 3085 3084 3083 3082 3081 3080 3079 3078 3077 3075 3074 3074 3073 3073 3071 3071 3070 3070 3069 3069 3068 3067 3066 3066 3065 3064 3063 3061 3060 3060 3059 3058 3058 3057 3055 3055
3093 3094 3094 3094 3095 3095 3095 3095 3095 3095 3095 3095 3095 3095 3095 3095 3095 3095 3095 3096 3096 3096 3095 3095 3095 3095 3095 3094 3094 3093 3093 3092 3091 3091 3090 3089 3089 3088 3087 3086 3086 3085 3084 3083 3083 3082 3081 3080 3079 3078 3077 3076 3075 3074 3073 3072 3070 3069 3069 3068 3067 3066 3064 3063 3063 3062 3061 3060 3060 3059 3059 3058 3057 3056 3055 3054 3053 3052 3052 3051 3050 3049 3049 3047 3047
3089 3089 3089 3089 3090 3090 3090 3090 3090 3090 3091 3091 3091 3091 3091 3091 3091 3091 3091 3091 3091 3091 3091 3091 3091 3090 3090 3090 3089 3089 3088 3088 3087 3086 3085 3084 3084 3083 3082 3081 3080 3079 3078 3077 3076 3075 3075 3074 3073 3072 3070 3069 3068 3067 3066 3064 3063 3062 3061 3060 3059 3058 3057 3056 3055 3054 3053 3052 3051 3051 3050 3049 3049 3048 3047 3046 3045 3044 3043 3043 3042 3041 3040 3039 3039